Location: Eschertshofen
(49.3064°N, 11.5756°E)
Time: 13:52:09
(UTC+00:00)

USA 116 - Pass Details

Date: 18 September 2020
Orbit: 405 x 834 km, 97.9° (Epoch: 18 November)

Event Time Altitude Azimuth Distance (km) Brightness Sun altitude
Rises 18:16:55 0° 12° (NNE) 2,415 7.0 -10.1°
Reaches altitude 10° 18:18:51 10° 10° (N) 1,578 6.1 -10.4°
Maximum altitude 18:22:12 74° 285° (WNW) 500 3.7 -10.9°
Drops below altitude 10° 18:25:53 10° 201° (SSW) 1,736 6.3 -11.5°
Sets 18:28:05 0° 200° (SSW) 2,686 7.3 -11.8°
